TimeEST,TemperatureF,Dew PointF,Humidity,Sea Level PressureIn,VisibilityMPH,Wind Direction,Wind SpeedMPH,Gust SpeedMPH,PrecipitationIn,Events,Conditions,WindDirDegrees,DateUTC
12:13 AM,30.2,30.2,100,30.05,2.5,WNW,4.6,-,0.00,Snow,Light Snow,290,2013-01-01 05:13:00
12:21 AM,30.2,30.2,100,30.05,4.0,West,5.8,-,0.00,Snow,Light Snow,280,2013-01-01 05:21:00
12:53 AM,30.9,30.0,96,30.07,6.0,WNW,5.8,-,0.00,,Overcast,290,2013-01-01 05:53:00
1:53 AM,30.9,30.0,96,30.06,7.0,NW,4.6,-,N/A,,Overcast,310,2013-01-01 06:53:00
2:39 AM,28.4,28.4,100,30.05,2.0,NNW,9.2,-,N/A,,Overcast,340,2013-01-01 07:39:00
2:53 AM,28.9,28.0,96,30.08,2.0,NNW,11.5,-,N/A,,Overcast,340,2013-01-01 07:53:00
3:03 AM,28.4,28.4,100,30.05,1.8,NNW,9.2,-,N/A,,Overcast,340,2013-01-01 08:03:00
3:12 AM,28.4,28.4,100,30.05,2.0,NNW,8.1,-,0.00,,Overcast,340,2013-01-01 08:12:00
3:44 AM,28.4,28.4,100,30.05,3.0,NNW,9.2,-,0.00,,Overcast,330,2013-01-01 08:44:00
3:53 AM,28.0,27.0,96,30.08,4.0,NNW,12.7,-,0.00,,Overcast,340,2013-01-01 08:53:00
4:08 AM,28.4,26.6,93,30.06,6.0,NNW,9.2,-,N/A,,Overcast,340,2013-01-01 09:08:00
4:26 AM,28.4,24.8,86,30.06,7.0,NNW,9.2,-,N/A,,Overcast,330,2013-01-01 09:26:00
4:53 AM,28.0,24.1,85,30.09,6.0,North,6.9,-,N/A,,Overcast,350,2013-01-01 09:53:00
5:18 AM,26.6,24.8,93,30.06,6.0,NNW,5.8,-,N/A,,Overcast,330,2013-01-01 10:18:00
5:53 AM,27.0,24.1,89,30.09,6.0,NNW,5.8,-,N/A,,Overcast,330,2013-01-01 10:53:00
6:06 AM,26.6,24.8,93,30.07,6.0,NW,6.9,-,N/A,,Overcast,320,2013-01-01 11:06:00
6:53 AM,26.1,23.0,88,30.11,6.0,NNW,5.8,-,N/A,,Overcast,330,2013-01-01 11:53:00
7:33 AM,26.6,23.0,86,30.09,6.0,NNW,6.9,-,N/A,,Overcast,340,2013-01-01 12:33:00
7:53 AM,26.1,23.0,88,30.14,6.0,NW,8.1,-,N/A,,Overcast,320,2013-01-01 12:53:00
8:03 AM,24.8,21.2,86,30.11,6.0,NNW,9.2,-,N/A,,Overcast,330,2013-01-01 13:03:00
8:42 AM,24.8,21.2,86,30.09,4.0,North,8.1,-,N/A,,Mostly Cloudy,350,2013-01-01 13:42:00
8:53 AM,25.0,21.9,88,30.12,4.0,North,9.2,-,N/A,,Mostly Cloudy,360,2013-01-01 13:53:00
9:17 AM,24.8,21.2,86,30.09,4.0,North,5.8,-,N/A,,Overcast,360,2013-01-01 14:17:00
9:53 AM,25.0,21.0,85,30.14,4.0,North,6.9,-,N/A,,Overcast,350,2013-01-01 14:53:00
10:53 AM,26.1,21.0,81,30.16,5.0,North,6.9,-,N/A,,Haze,350,2013-01-01 15:53:00
11:53 AM,28.0,21.9,78,30.16,7.0,North,3.5,-,N/A,,Clear,360,2013-01-01 16:53:00
12:53 PM,27.0,21.9,81,30.12,7.0,NNW,6.9,-,N/A,,Partly Cloudy,340,2013-01-01 17:53:00
1:53 PM,27.0,21.0,78,30.14,9.0,NW,5.8,-,N/A,,Clear,320,2013-01-01 18:53:00
2:53 PM,26.1,19.9,78,30.13,7.0,NW,6.9,-,N/A,,Clear,320,2013-01-01 19:53:00
3:53 PM,25.0,19.0,78,30.13,8.0,NNW,8.1,-,N/A,,Clear,330,2013-01-01 20:53:00
4:53 PM,23.0,18.0,81,30.14,7.0,NW,6.9,-,N/A,,Clear,310,2013-01-01 21:53:00
5:53 PM,21.0,17.1,85,30.16,7.0,WNW,6.9,-,N/A,,Clear,300,2013-01-01 22:53:00
6:53 PM,19.9,16.0,85,30.16,8.0,WNW,6.9,-,N/A,,Clear,300,2013-01-01 23:53:00
7:53 PM,19.9,16.0,85,30.17,9.0,NW,9.2,-,N/A,,Mostly Cloudy,320,2013-01-02 00:53:00
8:53 PM,19.9,15.1,81,30.19,10.0,NNW,9.2,-,N/A,,Overcast,330,2013-01-02 01:53:00
9:53 PM,18.0,14.0,84,30.19,10.0,NW,8.1,-,N/A,,Scattered Clouds,320,2013-01-02 02:53:00
10:53 PM,16.0,10.9,81,30.21,10.0,NW,6.9,-,N/A,,Partly Cloudy,320,2013-01-02 03:53:00
11:53 PM,15.1,10.0,80,30.19,10.0,NNW,8.1,-,N/A,,Clear,330,2013-01-02 04:53:00